COSMOS 619

Satellite information

Favourite Embed

Satellite Type and Status

PAYLOADIN ORBIT

Key statistics

Satellite COSMOS 619 at a glance.

Uptime

18945

Days in orbit

Revolutions

≈ 12.5

Per day

Orbit

LEO

Low Earth Orbit

Inclination

74.0

Latest

Satellite identification and parameters

Extended collection of information and parameters for COSMOS 619.

Object identification

Identified? True

Debris? False

Object name: COSMOS 619

International designator: 1973-104C

Object number (NORAD): 6987

Object ID (CCSDS): 6987

Country: COMMONWEALTH OF INDEPENDENT STATES (CIS)

Current information (Y/N): Y

RCS size: MEDIUM

Orbital parameters

Period: 114.995 minutes

Inclination: 74.028 deg

SMA: 7833.321 km

Apoapsis: 1487.284 km

Periapsis: 1423.089 km

RAAN: 167.8674 deg

Eccentricy: 0.0040976

Argument of periapsis: 333.7379 deg

Mean anomaly: 26.1595 deg

Mean motion: 12.52229226 rev/day

Mean motion (dot): 0.0 rev/day2

B* drag term: 0.00010342 1/REarth

Two-line elements (TLE)

Creation date: Oct. 31, 2025, 10:56 p.m.

Reference frame: TEME

Reference center: EARTH

Epoch: Oct. 31, 2025, 5:32 p.m. UTC

TLE line 0: 0 COSMOS 619

TLE line 1: 1 6987U 73104C 25304.73117203 .00000000 00000-0 10342-3 0 9996

TLE line 2: 2 6987 74.0280 167.8674 0040976 333.7379 26.1595 12.52229226370992

Live tracking on map

Real-time ground track for satellite COSMOS 619.

In-orbit conjunctions

There are no conjunctions computed for COSMOS 619, at the moment. Check back to stay up to date, as we update our databases every day.

Go to all conjunctions

Associated space launch

Military communications satellites

COSMOS 619 was lifted into orbit during the mission ‘Kosmos-3M | Strela-1M 57-64’, on board a Kosmos-3M space rocket.

The launch took place on Dec. 19, 1973, 9:43 a.m. from 132/2.

For more information about the launch, click the button.

Launch to space Kosmos-3M | Strela-1M 57-64
Kosmos-3M | Strela-1M 57-64

Agency: N/A

Status: Launch Successful

Launch date: Dec. 19, 1973, 9:43 a.m. UTC

Rocket: Kosmos-3M

Launch pad: 132/2

Location: Plesetsk Cosmodrome, Russian Federation

...

Latest news about this satellite

There are no fresh news available about this satellite. Check back as we update our databases every day.


Newsletter sign-up

Weekly statistics, charts and insights to help you stay on top of the space industry.